DW5657 Weather Reports


Display with metric or nautical units.
time (UTC)temp
F
wind
direction
speed
MPH
gust
MPH
rain 1hr
in
rain 24hr
in
rain mn
in
humidity
%
barometer
mb
20260504060205 53 82 0.0 0.0 0.00 0.00 0.00 61 1011.2
20260504050703 53 92 0.0 1.0 0.00 0.00 0.00 60 1011.7
20260504050204 53 106 0.0 0.0 0.00 0.00 0.00 60 1011.7
20260504045703 53 102 0.0 1.0 0.00 0.00 0.00 60 1011.8
20260504045204 53 92 0.0 2.0 0.00 0.00 0.00 60 1011.7
20260504044704 53 103 1.0 3.0 0.00 0.00 0.00 61 1011.9
20260504044203 53 88 0.0 2.0 0.00 0.00 0.00 61 1011.9
20260504043704 53 111 0.0 1.0 0.00 0.00 0.00 61 1012.0
20260504043203 53 46 0.0 0.0 0.00 0.00 0.00 61 1012.0
20260504042703 53 77 0.0 0.0 0.00 0.00 0.00 61 1011.9
20260504042203 53 105 0.0 0.0 0.00 0.00 0.00 60 1012.0
20260504041704 53 55 0.0 0.0 0.00 0.00 0.00 60 1012.0
20260504041204 53 64 0.0 0.0 0.00 0.00 0.00 60 1012.1
20260504040704 54 88 0.0 0.0 0.00 0.00 0.00 60 1012.1
20260504040205 54 77 0.0 0.0 0.00 0.00 0.00 60 1012.2
20260504035704 54 82 0.0 2.0 0.00 0.00 0.00 59 1012.3
20260504035204 54 67 0.0 0.0 0.00 0.00 0.00 59 1012.3
20260504034705 54 69 0.0 0.0 0.00 0.00 0.00 59 1012.4
20260504034204 54 65 0.0 0.0 0.00 0.00 0.00 58 1012.5
20260504033704 54 65 0.0 0.0 0.00 0.00 0.00 58 1012.6
20260504033203 55 66 0.0 1.0 0.00 0.00 0.00 58 1012.6
20260504032704 55 81 0.0 0.0 0.00 0.00 0.00 57 1012.6
20260504032204 55 74 0.0 0.0 0.00 0.00 0.00 57 1012.6
20260504031703 55 73 0.0 0.0 0.00 0.00 0.00 56 1012.6
20260504031205 55 74 0.0 2.0 0.00 0.00 0.00 56 1012.6
20260504030704 55 92 0.0 0.0 0.00 0.00 0.00 56 1012.6
20260504030205 56 91 0.0 0.0 0.00 0.00 0.00 55 1012.6
20260504025703 56 90 0.0 0.0 0.00 0.00 0.00 55 1012.7
20260504025204 56 88 0.0 0.0 0.00 0.00 0.00 55 1012.7
20260504024703 56 63 0.0 0.0 0.00 0.00 0.00 54 1012.7
20260504024203 56 62 0.0 0.0 0.00 0.00 0.00 54 1012.8
20260504023704 57 66 0.0 0.0 0.00 0.00 0.00 54 1012.8
20260504023205 57 96 0.0 0.0 0.00 0.00 0.00 53 1012.8
20260504022704 57 71 0.0 1.0 0.00 0.00 0.00 53 1012.8
20260504022204 57 88 0.0 1.0 0.00 0.00 0.00 53 1012.9
20260504021703 57 107 0.0 2.0 0.00 0.00 0.00 53 1012.8
20260504021204 57 82 0.0 2.0 0.00 0.00 0.00 52 1012.7
20260504020204 58 99 0.0 2.0 0.00 0.00 0.00 52 1012.8
20260504015704 58 99 0.0 3.0 0.00 0.00 0.00 52 1012.7
20260504014704 58 97 0.0 0.0 0.00 0.00 0.00 50 1012.7
20260504014204 58 93 0.0 3.0 0.00 0.00 0.00 50 1012.6
20260504013704 58 99 3.0 10.0 0.00 0.00 0.00 49 1012.6
20260504013205 58 97 3.0 10.0 0.00 0.00 0.00 47 1012.6
20260504012704 58 87 1.0 3.0 0.00 0.00 0.00 47 1012.4
20260504012205 58 92 2.0 5.0 0.00 0.00 0.00 46 1012.5
20260504011705 58 99 0.0 2.0 0.00 0.00 0.00 46 1012.4
20260504011203 58 91 0.0 2.0 0.00 0.00 0.00 46 1012.4
20260504010704 59 90 1.0 2.0 0.00 0.00 0.00 45 1012.5
20260504010205 59 94 0.0 1.0 0.00 0.00 0.00 46 1012.5
20260504005704 59 82 0.0 3.0 0.00 0.00 0.00 45 1012.5
20260504005204 59 76 0.0 3.0 0.00 0.00 0.00 45 1012.4
20260504004704 59 88 0.0 3.0 0.00 0.00 0.00 45 1012.5
20260504004204 59 92 1.0 3.0 0.00 0.00 0.00 45 1012.5
20260504003705 59 88 1.0 6.0 0.00 0.00 0.00 44 1012.4
20260504003205 59 80 0.0 3.0 0.00 0.00 0.00 44 1012.4
20260504002704 59 87 1.0 3.0 0.00 0.00 0.00 44 1012.5
20260504001704 59 95 0.0 2.0 0.00 0.00 0.00 44 1012.4
20260504001204 59 94 0.0 2.0 0.00 0.00 0.00 43 1012.4
20260504000704 59 92 0.0 5.0 0.00 0.00 0.00 43 1012.2
20260503235704 60 70 0.0 5.0 0.00 0.00 0.00 43 1012.1
20260503235205 60 89 2.0 9.0 0.00 0.00 0.00 44 1012.1
20260503234704 60 92 0.0 2.0 0.00 0.00 0.00 43 1012.1
20260503234204 60 92 0.0 8.0 0.00 0.00 0.00 43 1012.1
20260503233703 60 86 1.0 8.0 0.00 0.00 0.00 42 1012.1
20260503232704 60 69 1.0 3.0 0.00 0.00 0.00 42 1012.4
20260503231704 60 76 1.0 5.0 0.00 0.00 0.00 43 1012.6
20260503231204 60 83 0.0 3.0 0.00 0.00 0.00 42 1012.8
20260503230704 60 84 0.0 3.0 0.00 0.00 0.00 42 1012.9
20260503230204 61 79 0.0 2.0 0.00 0.00 0.00 42 1013.0
20260503225705 61 90 1.0 5.0 0.00 0.00 0.00 42 1013.1
20260503225204 61 86 2.0 5.0 0.00 0.00 0.00 41 1013.2
20260503224704 61 76 1.0 3.0 0.00 0.00 0.00 41 1013.4
20260503223704 61 66 1.0 6.0 0.00 0.00 0.00 40 1013.5
20260503223204 61 65 2.0 5.0 0.00 0.00 0.00 39 1013.6
20260503222704 62 80 4.0 9.0 0.00 0.00 0.00 39 1013.6
20260503222204 62 59 5.0 13.0 0.00 0.00 0.00 38 1013.7
20260503221705 63 50 3.0 7.0 0.00 0.00 0.00 39 1013.7
20260503221204 63 48 2.0 7.0 0.00 0.00 0.00 40 1013.7
20260503220704 63 57 2.0 9.0 0.00 0.00 0.00 40 1013.8
20260503220205 62 55 1.0 5.0 0.00 0.00 0.00 41 1013.9
20260503215704 62 64 1.0 7.0 0.00 0.00 0.00 40 1013.9
20260503215204 62 67 2.0 8.0 0.00 0.00 0.00 41 1013.9
20260503214703 61 90 3.0 12.0 0.00 0.00 0.00 40 1013.9
20260503213704 60 82 2.0 7.0 0.00 0.00 0.00 41 1014.0
20260503213205 60 72 1.0 5.0 0.00 0.00 0.00 43 1013.8
20260503212704 60 83 1.0 6.0 0.00 0.00 0.00 41 1013.9
20260503212205 60 64 1.0 7.0 0.00 0.00 0.00 41 1014.0
20260503211704 60 71 2.0 8.0 0.00 0.00 0.00 40 1014.3
20260503211204 60 76 3.0 8.0 0.00 0.00 0.00 39 1014.5
20260503210704 60 86 2.0 7.0 0.00 0.00 0.00 41 1014.5
20260503210204 60 84 2.0 7.0 0.00 0.00 0.00 41 1014.8
20260503205704 60 81 0.0 6.0 0.00 0.00 0.00 40 1014.7
20260503205204 61 74 3.0 9.0 0.00 0.00 0.00 39 1015.0
20260503204704 61 69 2.0 7.0 0.00 0.00 0.00 39 1014.9
20260503204204 61 48 1.0 5.0 0.00 0.00 0.00 40 1014.9
20260503203204 61 74 4.0 13.0 0.00 0.00 0.00 39 1014.7
20260503202704 61 78 3.0 13.0 0.00 0.00 0.00 40 1014.8
20260503202206 61 66 2.0 8.0 0.00 0.00 0.00 40 1014.8
20260503201705 61 77 5.0 14.0 0.00 0.00 0.00 39 1014.8
20260503200704 61 62 2.0 6.0 0.00 0.00 0.00 38 1014.8
20260503200204 61 66 5.0 13.0 0.00 0.00 0.00 38 1014.8
20260503195705 62 74 2.0 6.0 0.00 0.00 0.00 40 1014.9
20260503195204 62 73 4.0 7.0 0.00 0.00 0.00 38 1015.1
20260503194704 62 66 2.0 10.0 0.00 0.00 0.00 39 1015.2
20260503193705 62 28 2.0 7.0 0.00 0.00 0.00 38 1015.4
20260503193204 62 68 4.0 10.0 0.00 0.00 0.00 39 1015.6
20260503192705 62 71 3.0 10.0 0.00 0.00 0.00 39 1015.7
20260503192203 61 78 5.0 9.0 0.00 0.00 0.00 41 1015.7
20260503191703 61 79 3.0 7.0 0.00 0.00 0.00 40 1015.8
20260503190203 61 80 6.0 13.0 0.00 0.00 0.00 40 1016.0
20260503185704 61 74 2.0 8.0 0.00 0.00 0.00 37 1016.1
20260503185203 60 73 6.0 12.0 0.00 0.00 0.00 40 1016.3
20260503184703 60 76 1.0 8.0 0.00 0.00 0.00 40 1016.4
20260503184203 60 65 3.0 8.0 0.00 0.00 0.00 39 1016.5
20260503183704 60 56 4.0 7.0 0.00 0.00 0.00 39 1016.6
20260503183203 60 65 4.0 10.0 0.00 0.00 0.00 40 1016.7
20260503182704 60 78 3.0 10.0 0.00 0.00 0.00 39 1016.6
20260503182203 60 61 4.0 9.0 0.00 0.00 0.00 39 1016.7
20260503181702 61 65 6.0 12.0 0.00 0.00 0.00 38 1016.7
20260503181203 61 58 3.0 9.0 0.00 0.00 0.00 38 1016.9
20260503180702 61 50 4.0 15.0 0.00 0.00 0.00 37 1016.9
20260503180204 61 66 2.0 15.0 0.00 0.00 0.00 41 1016.9
20260503175702 61 54 4.0 8.0 0.00 0.00 0.00 38 1017.0
20260503175204 61 69 4.0 8.0 0.00 0.00 0.00 38 1016.9
20260503174203 61 60 2.0 10.0 0.00 0.00 0.00 39 1017.1
20260503173703 61 69 2.0 8.0 0.00 0.00 0.00 37 1017.3
20260503173203 61 54 3.0 8.0 0.00 0.00 0.00 38 1017.3
20260503172703 61 58 5.0 9.0 0.00 0.00 0.00 37 1017.3
20260503171703 61 65 3.0 7.0 0.00 0.00 0.00 39 1017.7
20260503171203 60 55 3.0 10.0 0.00 0.00 0.00 41 1017.8
20260503170703 60 70 3.0 10.0 0.00 0.00 0.00 40 1017.9
20260503170203 60 75 4.0 12.0 0.00 0.00 0.00 39 1017.8
20260503160204 58 65 4.0 8.0 0.00 0.00 0.00 43 1018.7
20260503150702 55 110 5.0 8.0 0.00 0.00 0.00 47 1019.1
20260503140203 51 88 3.0 9.0 0.00 0.00 0.00 55 1019.1
20260503130703 46 113 2.0 8.0 0.00 0.00 0.00 64 1019.3
20260503130202 45 120 2.0 12.0 0.00 0.00 0.00 64 1019.2
20260503110702 39 149 1.0 3.0 0.00 0.00 0.00 77 1018.5
20260503100202 38 157 0.0 3.0 0.00 0.00 0.00 78 1017.9
20260503090204 37 158 0.0 0.0 0.00 0.00 0.00 81 1018.0
20260503081203 36 351 0.0 0.0 0.00 0.00 0.00 82 1017.9
20260503080703 36 351 0.0 0.0 0.00 0.00 0.00 82 1017.9
20260503080204 36 351 0.0 0.0 0.00 0.00 0.00 81 1017.9
20260503072703 37 351 0.0 0.0 0.00 0.00 0.00 79 1017.8
20260503072203 37 351 0.0 0.0 0.00 0.00 0.00 79 1017.8
20260503070203 38 351 0.0 0.0 0.00 0.00 0.00 77 1017.9